Location: Stockholm
(59.3330°N, 18.0500°E)
Time: 13:58:09
(UTC+01:00)

Envisat - Pass Details

Date: 01 December 2022
Orbit: 763 x 765 km, 98.2° (Epoch: 29 January)

Event Time Altitude Azimuth Distance (km) Brightness Sun altitude
Rises 06:29:36 0° 15° (NNE) 3,250 6.2 -12.2°
Reaches altitude 10° 06:32:27 10° 360° (N) 2,320 5.3 -11.9°
Maximum altitude 06:36:05 20° 314° (NW) 1,720 4.3 -11.4°
Enters shadow 06:38:51 13° 276° (W) 2,088 4.7 -11.1°
